Hourly Data Report for October 28, 2013

All times are specified in Local Standard Time (LST). Add 1 hour to adjust for Daylight Saving Time where and when it is observed.

FREDERICTON
NEW BRUNSWICK

45°52'08.000" N
66°32'14.000" W
20.70 m
8101505
71700
YFC

Download Data

Hourly Data (October 2013)
Hourly Data Report for October 28, 2013
Temp Definition
°C
Dew Point Temp Definition
°C
Rel Hum Definition
%
Wind Dir Definition
10's deg

Wind Spd Definition
km/h
Visibility Definition
km
Stn Press Definition
kPa
Hmdx Definition


Wind Chill Definition


Weather Definition


TIME
00:00 Legend Double Dagger 4.7 1.7 81 24 9 16.1 100.82     LegendNANA
01:00 Legend Double Dagger 3.9 1.1 82 25 5 16.1 100.87     LegendNANA
02:00 Legend Double Dagger 3.2 0.3 81 28 5 16.1 100.91     LegendNANA
03:00 Legend Double Dagger 2.9 -0.7 77 25 18 16.1 100.94     LegendNANA
04:00 Legend Double Dagger 1.1 -1.3 84 24 18 16.1 101.02     LegendNANA
05:00 Legend Double Dagger -0.5 -2.1 89 23 13 16.1 101.05   -5 LegendNANA
06:00 Legend Double Dagger -1.4 -2.5 92 23 17 16.1 101.10   -7 LegendNANA
07:00 Legend Double Dagger -1.8 -2.8 93 23 15 16.1 101.13   -7 LegendNANA
08:00 Legend Double Dagger 0.2 -1.7 87 19 13 16.1 101.23     LegendNANA
09:00 Legend Double Dagger 4.3 -0.6 71 23 17 16.1 101.28     LegendNANA
10:00 Legend Double Dagger 5.7 -0.1 66 22 22 16.1 101.28     LegendNANA
11:00 Legend Double Dagger 7.0 -1.5 55 26 15 16.1 101.23     LegendNANA
12:00 Legend Double Dagger LegendMM LegendMM LegendMM LegendMM LegendMM LegendMM LegendMM     LegendNANA
13:00 Legend Double Dagger LegendMM LegendMM LegendMM LegendMM LegendMM LegendMM LegendMM     LegendNANA
14:00 Legend Double Dagger 6.6 0.4 65 22 26 LegendMM 101.15     LegendNANA
15:00 Legend Double Dagger 7.0 0.9 65 25 5 16.1 101.13     LegendNANA
16:00 Legend Double Dagger 7.1 2.1 70 33 5 16.1 101.18     LegendNANA
17:00 Legend Double Dagger 4.5 2.9 89 30 15 11.3 101.35     LegendNANA
18:00 Legend Double Dagger 3.4 1.6 88 35 33 9.7 101.58     LegendNANA
19:00 Legend Double Dagger 1.9 0.7 92 30 15 16.1 101.77     LegendNANA
20:00 Legend Double Dagger 1.0 0.0 93 28 11 16.1 101.91     LegendNANA
21:00 Legend Double Dagger 0.6 -0.7 91 30 9 16.1 102.01     LegendNANA
22:00 Legend Double Dagger -1.2 -1.6 97 LegendMM 4 16.1 102.12   -3 LegendNANA
23:00 Legend Double Dagger -0.9 -1.5 96 27 5 16.1 102.20   -3 LegendNANA

Notes on Data Quality.

Legend

  • E = Estimated
  • M = Missing
  • NA = Not Available
  • ‡ = Partner data that is not subject to review by the National Climate Archives
Date modified: